Weather History for Mount Ida, AR

Change the Weather History Date:

Wednesday, December 19, 2012

  Actual Average (KHOT) Record (KHOT)
Temperature  
Mean Temperature 53 °F -  
Max Temperature 71 °F 53 °F 71 °F (1980)
Min Temperature 35 °F 31 °F 10 °F (1989)
Degree Days  
Heating Degree Days 12    
Growing Degree Days 3 (Base 50)    
Moisture  
Dew Point 54 °F    
Average Humidity 86    
Maximum Humidity 96    
Minimum Humidity 73    
Precipitation  
Precipitation 0.00 in - - ()
Sea Level Pressure  
Sea Level Pressure 29.70 in    
Wind  
Wind Speed 3 mph (South)    
Max Wind Speed 10 mph    
Max Gust Speed 25 mph    
Visibility 9 miles    
Events Rain    
Averages and records for this station are not official NWS values.
T = Trace of Precipitation, MM = Missing Value Source: NWS Daily Summary

Daily Weather History Graph

Daily Weather History Graph

Search for Another Location

Airport:

Trip Planner

Search our weather history database for the weather conditions in past years. The results will help you decide how hot, cold, wet, or windy it might be!

Date:

Astronomy

Dec. 19, 2012 Rise Set
Actual Time 7:16 AM CST 5:07 PM CST
Civil Twilight 6:48 AM CST 5:35 PM CST
Nautical Twilight 6:16 AM CST 6:06 PM CST
Astronomical Twilight 5:46 AM CST 6:37 PM CST
Moon 11:42 AM CST (12/19) No Moon Set
Length of Visible Light 10h 46m
Length of Day
9h 50m
Waxing Crescent, 45% of the Moon is Illuminated
Dec 19
Waxing Crescent
Dec 19
First Quarter
Dec 28
Full
Jan 4
Last Quarter
Jan 11
New

Hourly Weather History & Observations

Time (CST) Temp. Dew Point Humidity Pressure Visibility Wind Dir Wind Speed Gust Speed Precip Events Conditions
12:53 AM 36.0 °F 34.0 °F 93% 29.83 in 10.0 mi Calm Calm - N/A   Clear
1:53 AM 37.0 °F 35.1 °F 93% 29.83 in 10.0 mi Calm Calm - N/A   Clear
2:53 AM 35.1 °F 34.0 °F 96% 29.82 in 10.0 mi Calm Calm - N/A   Clear
3:53 AM 35.1 °F 34.0 °F 96% 29.81 in 10.0 mi Calm Calm - N/A   Clear
4:53 AM 37.0 °F 36.0 °F 96% 29.80 in 10.0 mi Calm Calm - N/A   Partly Cloudy
5:31 AM 39.2 °F 37.4 °F 93% 29.79 in 10.0 mi Calm Calm - N/A   Mostly Cloudy
5:53 AM 42.1 °F 39.9 °F 92% 29.81 in 10.0 mi Calm Calm - N/A   Overcast
6:53 AM 53.1 °F 50.0 °F 89% 29.81 in 10.0 mi Calm Calm - N/A   Overcast
7:53 AM 57.0 °F 54.0 °F 89% 29.81 in 10.0 mi SSE 5.8 mph - N/A   Overcast
8:07 AM 57.2 °F 55.4 °F 94% 29.82 in 7.0 mi Calm Calm - N/A   Overcast
8:53 AM 55.9 °F 54.0 °F 93% 29.84 in 8.0 mi Calm Calm - N/A   Overcast
9:53 AM 57.0 °F 55.0 °F 93% 29.83 in 10.0 mi ESE 3.5 mph - N/A   Overcast
10:53 AM 57.0 °F 55.0 °F 93% 29.82 in 9.0 mi Variable 3.5 mph - N/A   Overcast
11:53 AM 57.9 °F 55.9 °F 93% 29.79 in 6.0 mi Calm Calm - N/A   Overcast
12:53 PM 63.0 °F 59.0 °F 87% 29.74 in 10.0 mi Variable 3.5 mph - N/A   Overcast
1:14 PM 64.4 °F 59.0 °F 83% 29.73 in 10.0 mi Variable 4.6 mph - N/A   Overcast
1:53 PM 64.9 °F 59.0 °F 81% 29.71 in 10.0 mi Variable 4.6 mph - N/A   Overcast
2:08 PM 64.4 °F 60.8 °F 88% 29.70 in 10.0 mi Variable 3.5 mph - N/A   Mostly Cloudy
2:29 PM 66.2 °F 60.8 °F 83% 29.68 in 10.0 mi South 10.4 mph 16.1 mph N/A   Scattered Clouds
2:53 PM 66.0 °F 60.1 °F 81% 29.68 in 10.0 mi Variable 5.8 mph - N/A   Scattered Clouds
3:53 PM 66.9 °F 60.1 °F 79% 29.66 in 10.0 mi SSE 10.4 mph 20.7 mph N/A   Partly Cloudy
4:53 PM 68.0 °F 60.1 °F 76% 29.63 in 10.0 mi South 9.2 mph 18.4 mph N/A   Clear
5:53 PM 68.0 °F 60.1 °F 76% 29.64 in 10.0 mi South 9.2 mph 18.4 mph N/A   Overcast
6:53 PM 68.0 °F 61.0 °F 78% 29.61 in 10.0 mi SSE 10.4 mph 18.4 mph N/A   Mostly Cloudy
7:53 PM 68.0 °F 61.0 °F 78% 29.60 in 10.0 mi SSE 9.2 mph 17.3 mph N/A   Mostly Cloudy
8:53 PM 68.0 °F 62.1 °F 81% 29.55 in 10.0 mi South 9.2 mph 18.4 mph N/A   Mostly Cloudy
9:23 PM 68.0 °F 62.6 °F 83% 29.54 in 10.0 mi Variable 6.9 mph 23.0 mph N/A   Mostly Cloudy
9:35 PM 69.8 °F 62.6 °F 78% 29.53 in 10.0 mi Variable 6.9 mph 25.3 mph N/A   Mostly Cloudy
9:53 PM 69.1 °F 62.1 °F 78% 29.52 in 10.0 mi South 8.1 mph 20.7 mph N/A   Mostly Cloudy
10:24 PM 69.8 °F 62.6 °F 78% 29.53 in 10.0 mi SSW 9.2 mph 20.7 mph N/A   Overcast
10:53 PM 70.0 °F 62.1 °F 76% 29.50 in 10.0 mi SSW 10.4 mph 23.0 mph N/A   Overcast
11:09 PM 71.6 °F 62.6 °F 73% 29.51 in 10.0 mi SSW 10.4 mph 21.9 mph N/A   Overcast
11:57 PM 55.4 °F 51.8 °F 88% 29.58 in 1.8 mi WNW 8.1 mph 23.0 mph 0.02 in Rain Heavy Rain